Location: Fairmont
(43.6520°N, 94.4610°W)
Time: 16:15:54
(UTC-05:00)

Cosmos-2242 - Visible Passes

Search period start: 02 September 2014 00:00
Search period end: 12 September 2014 00:00
Orbit: 597 x 623 km, 82.5° (Epoch: 02 September)

Date Brightness Start Highest point End Pass type
(mag) Time Alt. Az. Time Alt. Az. Time Alt. Az.
02 Sep 4.2 20:42:52 10° SE 20:46:21 23° E 20:49:52 10° NE visible
02 Sep 4.8 22:19:56 10° SW 22:23:52 32° WNW 22:27:50 10° N visible
03 Sep 3.5 20:56:43 10° SSE 21:00:49 39° E 21:04:57 10° NNE visible
03 Sep 5.6 22:35:28 10° WSW 22:38:40 19° WNW 22:41:54 10° NNW visible
04 Sep 3.0 21:10:59 10° S 21:15:21 70° E 21:19:46 10° NNE visible
04 Sep 6.1 22:51:54 10° W 22:53:34 12° WNW 22:55:14 10° NW visible
05 Sep 3.4 21:25:35 10° SSW 21:29:57 67° W 21:34:23 10° N visible
06 Sep 4.5 21:40:32 10° SW 21:44:39 38° WNW 21:48:49 10° N visible
07 Sep 3.8 20:17:47 10° SSE 20:21:42 32° E 20:25:39 10° NNE visible
07 Sep 5.4 21:55:52 10° SW 21:59:25 23° WNW 22:02:59 10° NNW visible
08 Sep 3.1 20:31:53 10° S 20:36:12 56° E 20:40:32 10° NNE visible
08 Sep 6.1 22:11:50 10° WSW 22:14:16 14° WNW 22:16:43 10° NW visible
09 Sep 3.1 20:46:22 10° S 20:50:46 83° W 20:55:14 10° N visible
10 Sep 4.1 21:01:10 10° SSW 21:05:26 47° WNW 21:09:43 10° N visible
11 Sep 5.2 21:16:21 10° SW 21:20:10 28° WNW 21:24:00 10° NNW visible
